CZ-6A DEB

Satellite information

Favourite Embed

Satellite Type and Status

DEBRISIN ORBIT

Key statistics

Satellite CZ-6A DEB at a glance.

Uptime

1029

Days in orbit

Revolutions

≈ 14.6

Per day

Orbit

SSO

Sun Synchronous Orbit

Inclination

98.7

Latest

Satellite identification and parameters

Extended collection of information and parameters for CZ-6A DEB.

Object identification

Identified? True

Debris? True

Object name: CZ-6A DEB

International designator: 2022-151VB

Object number (NORAD): 55186

Object ID (CCSDS): 55186

Country: PEOPLES REPUBLIC OF CHINA (PRC)

Current information (Y/N): Y

RCS size: SMALL

Orbital parameters

Period: 98.906 minutes

Inclination: 98.6692 deg

SMA: 7084.494 km

Apoapsis: 760.813 km

Periapsis: 651.905 km

RAAN: 292.9764 deg

Eccentricy: 0.00768637

Argument of periapsis: 89.546 deg

Mean anomaly: 271.4543 deg

Mean motion: 14.55926816 rev/day

Mean motion (dot): 0.00011754 rev/day2

B* drag term: 0.002578269 1/REarth

Two-line elements (TLE)

Creation date: Sept. 4, 2025, 10:13 a.m.

Reference frame: TEME

Reference center: EARTH

Epoch: Sept. 4, 2025, 2:33 a.m. UTC

TLE line 0: 0 CZ-6A DEB

TLE line 1: 1 55186U 22151VB 25247.10674640 .00011754 00000-0 25783-2 0 9999

TLE line 2: 2 55186 98.6692 292.9764 0076864 89.5460 271.4543 14.55926816139881

Live tracking on map

Real-time ground track for satellite CZ-6A DEB.

In-orbit conjunctions

A list of the most updated potential collisions computed for object CZ-6A DEB.

Target Orbit TCA Probability of collision Miss distance Type
THOR BURNER 2A R/B SSO 2024-09-25 06:56:06 0.0001321569 642.0 (m) ROCKET BODY
CZ-4B DEB SSO 2024-09-25 05:38:53 0.000192685 887.0 (m) DEBRIS
OAO 2 LEO 2024-09-24 11:39:30 0.0002163734 292.0 (m) PAYLOAD

Associated space launch

Chinese satellite reported for atmospheric/ocean/environmental/spatial parameter research purposes, details TBD.

CZ-6A DEB was lifted into orbit during the mission ‘Long March 6A | Yunhai 3’, on board a Long March 6A space rocket.

The launch took place on Nov. 11, 2022, 10:52 p.m. from Launch Complex 9A.

For more information about the launch, click the button.

Launch to space Long March 6A | Yunhai 3
Long March 6A | Yunhai 3

Agency: N/A

Status: Launch Successful

Launch date: Nov. 11, 2022, 10:52 p.m. UTC

Rocket: Long March 6A

Launch pad: Launch Complex 9A

Location: Taiyuan Satellite Launch Center, People's Republic of China

...

Latest news about this satellite

There are no fresh news available about this satellite. Check back as we update our databases every day.


Newsletter sign-up

Weekly statistics, charts and insights to help you stay on top of the space industry.